Fairfield, IA

7:29 AM CST on December 06, 2019 (GMT -0600)
Fairfield Municipal

Weather History for KFFL - September, 2019

Change the Weather History Date:

Tuesday, September 10, 2019

  Actual Average Record
Temperature  
Mean Temperature 78 °F -  
Max Temperature 86 °F 79 °F 96 °F (2013)
Min Temperature 71 °F 56 °F 43 °F (1976)
Cooling Degree Days 14    
Growing Degree Days 28 (Base 50)    
Moisture  
Dew Point 73 °F    
Average Humidity 85    
Maximum Humidity 94    
Minimum Humidity 66    
Precipitation  
Precipitation 0.05 in - - ()
Sea Level Pressure  
Sea Level Pressure 30.03 in    
Wind  
Wind Speed 11 mph (SSW)    
Max Wind Speed 18 mph    
Max Gust Speed 25 mph    
Visibility 10 miles    
Events      
Averages and records for this station are not official NWS values.
T = Trace of Precipitation, MM = Missing Value Source: NWS Daily Summary

Daily Weather History Graph

Daily Weather History Graph

Search for Another Location

Airport or City:

Astronomy

Sep. 10, 2019 Rise Set
Actual Time 6:43 AM CDT 7:25 PM CDT
Civil Twilight 6:15 AM CDT 7:53 PM CDT
Nautical Twilight 5:42 AM CDT 8:26 PM CDT
Astronomical Twilight 5:08 AM CDT 9:00 PM CDT
Moon 6:04 PM CDT (9/10) 3:07 AM CDT (9/10)
Length of Visible Light 13h 38m
Length of Day
12h 42m
Waxing Gibbous, 89% of the Moon is Illuminated
Sep 10
Waxing Gibbous
Sep 13
Full
Sep 21
Last Quarter
Sep 28
New
Oct 5
First Quarter

Hourly Weather History & Observations

Time (CDT) Temp. Heat Index Dew Point Humidity Pressure Visibility Wind Dir Wind Speed Gust Speed Precip Events Conditions
12:15 AM 78.8 °F - 75.2 °F 89% 29.96 in 10.0 mi South 11.5 mph 17.3 mph N/A   Overcast
12:35 AM 78.8 °F - 73.4 °F 83% 29.96 in 10.0 mi South 15.0 mph - N/A   Overcast
12:55 AM 78.8 °F - 73.4 °F 83% 29.96 in 10.0 mi South 15.0 mph 24.2 mph N/A   Overcast
1:15 AM 78.8 °F - 73.4 °F 83% 29.96 in 10.0 mi South 13.8 mph 20.7 mph N/A   Overcast
1:35 AM 78.8 °F - 73.4 °F 83% 29.97 in 10.0 mi South 15.0 mph 23.0 mph N/A   Overcast
1:55 AM 78.8 °F - 73.4 °F 83% 29.97 in 10.0 mi South 15.0 mph 23.0 mph N/A   Overcast
2:15 AM 78.8 °F - 73.4 °F 83% 29.97 in 10.0 mi South 12.7 mph 20.7 mph N/A   Overcast
2:35 AM 78.8 °F - 73.4 °F 83% 29.97 in 10.0 mi South 12.7 mph 19.6 mph N/A   Overcast
2:55 AM 78.8 °F - 73.4 °F 83% 29.97 in 10.0 mi South 12.7 mph 18.4 mph N/A   Overcast
3:15 AM 77.0 °F - 73.4 °F 89% 29.97 in 10.0 mi South 12.7 mph - N/A   Overcast
3:35 AM 77.0 °F - 73.4 °F 89% 29.97 in 10.0 mi South 15.0 mph - N/A   Overcast
3:55 AM 77.0 °F - 73.4 °F 89% 29.97 in 10.0 mi South 11.5 mph - N/A   Mostly Cloudy
4:15 AM 77.0 °F - 73.4 °F 89% 29.97 in 10.0 mi South 10.4 mph - N/A   Mostly Cloudy
4:35 AM 77.0 °F - 73.4 °F 89% 29.97 in 10.0 mi South 9.2 mph - N/A   Overcast
4:55 AM 77.0 °F - 73.4 °F 89% 29.98 in 10.0 mi South 9.2 mph - N/A   Overcast
5:15 AM 77.0 °F - 73.4 °F 89% 29.98 in 10.0 mi South 9.2 mph - N/A   Overcast
5:35 AM 77.0 °F - 73.4 °F 89% 29.99 in 10.0 mi South 9.2 mph - N/A   Overcast
5:55 AM 77.0 °F - 73.4 °F 89% 29.99 in 10.0 mi South 9.2 mph - N/A   Overcast
6:15 AM 77.0 °F - 73.4 °F 89% 30.00 in 10.0 mi South 10.4 mph - N/A   Overcast
6:35 AM 77.0 °F - 73.4 °F 89% 30.00 in 10.0 mi South 9.2 mph - N/A   Overcast
6:55 AM 75.2 °F - 73.4 °F 94% 30.02 in 10.0 mi South 9.2 mph - N/A   Overcast
7:15 AM 75.2 °F - 73.4 °F 94% 30.02 in 10.0 mi SSW 8.1 mph - N/A   Mostly Cloudy
7:35 AM 75.2 °F - 73.4 °F 94% 30.05 in 9.0 mi West 10.4 mph - N/A   Scattered Clouds
7:55 AM 75.2 °F - 73.4 °F 94% 30.05 in 10.0 mi West 8.1 mph 13.8 mph N/A   Mostly Cloudy
8:15 AM 75.2 °F - 73.4 °F 94% 30.05 in 10.0 mi West 6.9 mph - N/A   Scattered Clouds
8:35 AM 77.0 °F - 73.4 °F 89% 30.06 in 10.0 mi West 9.2 mph - N/A   Partly Cloudy
8:55 AM 77.0 °F - 71.6 °F 83% 30.06 in 10.0 mi West 9.2 mph - N/A   Partly Cloudy
9:15 AM 78.8 °F - 71.6 °F 78% 30.06 in 10.0 mi West 10.4 mph - N/A   Partly Cloudy
9:35 AM 77.0 °F - 69.8 °F 78% 30.07 in 10.0 mi WNW 12.7 mph - N/A   Mostly Cloudy
9:55 AM 78.8 °F - 69.8 °F 74% 30.08 in 10.0 mi West 8.1 mph 15.0 mph N/A   Scattered Clouds
10:15 AM 77.0 °F - 68.0 °F 74% 30.08 in 10.0 mi West 8.1 mph 13.8 mph N/A   Mostly Cloudy
10:35 AM 78.8 °F - 68.0 °F 69% 30.09 in 10.0 mi West 11.5 mph - N/A   Scattered Clouds
10:55 AM 77.0 °F - 68.0 °F 74% 30.09 in 10.0 mi West 9.2 mph 16.1 mph N/A   Mostly Cloudy
11:15 AM 77.0 °F - 68.0 °F 74% 30.08 in 10.0 mi West 8.1 mph - N/A   Mostly Cloudy
11:35 AM 77.0 °F - 68.0 °F 74% 30.10 in 10.0 mi West 12.7 mph 19.6 mph N/A   Mostly Cloudy
11:55 AM 71.6 °F - 69.8 °F 94% 30.08 in 6.0 mi SSW 8.1 mph - 0.01 in   Mostly Cloudy
12:15 PM 71.6 °F - 69.8 °F 94% 30.08 in 9.0 mi South 8.1 mph 17.3 mph N/A   Mostly Cloudy
12:35 PM 71.6 °F - 69.8 °F 94% 30.10 in 9.0 mi WSW 10.4 mph - N/A   Mostly Cloudy
12:55 PM 73.4 °F - 69.8 °F 88% 30.07 in 9.0 mi SW 9.2 mph - 0.03 in   Partly Cloudy
1:15 PM 75.2 °F - 71.6 °F 89% 30.05 in 10.0 mi South 10.4 mph 17.3 mph N/A   Clear
1:35 PM 75.2 °F - 73.4 °F 94% 30.03 in 6.0 mi SSE 15.0 mph - N/A   Clear
1:55 PM 77.0 °F - 73.4 °F 89% 30.01 in 10.0 mi South 15.0 mph - 0.01 in   Clear
2:15 PM 78.8 °F - 73.4 °F 83% 30.00 in 10.0 mi South 18.4 mph 25.3 mph N/A   Partly Cloudy
2:35 PM 80.6 °F 84.6 °F 71.6 °F 74% 30.00 in 10.0 mi South 16.1 mph 25.3 mph N/A   Scattered Clouds
2:55 PM 80.6 °F 84.6 °F 71.6 °F 74% 30.01 in 10.0 mi South 16.1 mph 21.9 mph N/A   Mostly Cloudy
3:15 PM 84.2 °F 90.9 °F 73.4 °F 70% 30.01 in 10.0 mi South 17.3 mph - N/A   Scattered Clouds
3:35 PM 82.4 °F 88.2 °F 73.4 °F 74% 30.03 in 10.0 mi South 11.5 mph 20.7 mph N/A   Partly Cloudy
3:55 PM 84.2 °F 90.9 °F 73.4 °F 70% 30.04 in 10.0 mi SSW 8.1 mph 15.0 mph N/A   Mostly Cloudy
4:15 PM 84.2 °F 92.3 °F 75.2 °F 74% 30.03 in 10.0 mi SSW 9.2 mph 15.0 mph N/A   Partly Cloudy
4:35 PM 86.0 °F 95.1 °F 75.2 °F 70% 30.03 in 10.0 mi South 9.2 mph 15.0 mph N/A   Clear
4:55 PM 84.2 °F 92.3 °F 75.2 °F 74% 30.03 in 10.0 mi SSW 9.2 mph 16.1 mph N/A   Clear
5:15 PM 86.0 °F 93.4 °F 73.4 °F 66% 30.03 in 10.0 mi SSW 12.7 mph - N/A   Clear
5:35 PM 84.2 °F 90.9 °F 73.4 °F 70% 30.03 in 10.0 mi South 6.9 mph - N/A   Partly Cloudy
5:55 PM 84.2 °F 92.3 °F 75.2 °F 74% 30.03 in 10.0 mi South 8.1 mph - N/A   Clear
6:15 PM 84.2 °F 92.3 °F 75.2 °F 74% 30.03 in 10.0 mi South 9.2 mph - N/A   Clear
6:35 PM 82.4 °F 89.5 °F 75.2 °F 79% 30.03 in 10.0 mi SSW 6.9 mph - N/A   Clear
6:55 PM 80.6 °F 86.2 °F 75.2 °F 84% 30.03 in 10.0 mi South 5.8 mph - N/A   Clear
7:15 PM 80.6 °F 86.2 °F 75.2 °F 84% 30.02 in 10.0 mi South 5.8 mph - N/A   Clear
7:35 PM 78.8 °F - 75.2 °F 89% 30.03 in 10.0 mi South 5.8 mph - N/A   Clear
7:55 PM 78.8 °F - 75.2 °F 89% 30.03 in 10.0 mi South 5.8 mph - N/A   Clear
8:15 PM 77.0 °F - 75.2 °F 94% 30.03 in 10.0 mi South 5.8 mph - N/A   Clear
8:35 PM 77.0 °F - 73.4 °F 89% 30.04 in 10.0 mi South 4.6 mph - N/A   Clear
8:55 PM 77.0 °F - 73.4 °F 89% 30.04 in 10.0 mi South 6.9 mph - N/A   Clear
9:15 PM 77.0 °F - 73.4 °F 89% 30.04 in 10.0 mi South 6.9 mph - N/A   Clear
9:35 PM 75.2 °F - 73.4 °F 94% 30.04 in 10.0 mi South 5.8 mph - N/A   Clear
9:55 PM 75.2 °F - 73.4 °F 94% 30.04 in 10.0 mi South 6.9 mph - N/A   Partly Cloudy
10:15 PM 75.2 °F - 73.4 °F 94% 30.04 in 10.0 mi South 6.9 mph - N/A   Mostly Cloudy
10:35 PM 75.2 °F - 73.4 °F 94% 30.04 in 10.0 mi South 6.9 mph - N/A   Overcast
10:55 PM 75.2 °F - 73.4 °F 94% 30.05 in 10.0 mi South 5.8 mph - N/A   Overcast
11:15 PM 75.2 °F - 73.4 °F 94% 30.06 in 10.0 mi South 6.9 mph - N/A   Overcast
11:35 PM 75.2 °F - 73.4 °F 94% 30.06 in 10.0 mi South 6.9 mph - N/A   Overcast
11:55 PM 75.2 °F - 73.4 °F 94% 30.07 in 10.0 mi South 6.9 mph - N/A   Mostly Cloudy